DELTA 1 DEB, 12581

Orbit data source: Space-Track

DELTA 1 DEB, 12581 is space debris in LEO originally from a launch on Thu, 29 Jul 1976 UTC launched from the Air Force Western Test Range (AFWTR). Debris objects in space refer to the collection of defunct objects orbiting the Earth. Examples of debris include non-operational satellites, rocket bodies, and fragments generated from explosions, collisions, or faulty payload assembly.

Loading next visibility...
Identifier
12581, 1976-077DZ
Orbit
LEO
Country
Flag of USUS
Related business
Manufacturer
Unknown
Mission
Spacecraft
Bus & Motor
Unknown
Mass
Unknown
Launch date (UTC)
1976-07-29 (50 years ago)
Launch vehicle
Unknown
Launch site
Air Force Western Test Range (AFWTR)
Object type
Payload
Rocket body
Debris
Shape & HBR
Unknown shape, 0.1 m
Radar Cross Section
Small (<0.1 m²)

Expand to show TLE details & history
Last TLE update: 3 days ago

TLE from 3 days ago
0 DELTA 1 DEB
1 12581U 76077DZ  26060.16559543 -.00000035  00000-0  69983-4 0  9994
2 12581 102.4723 307.1913 0381754 326.6689 189.6030 11.70247956 52758
Epoch: 2026-03-01T03:58Z
TLE epoch observation values (Epoch: 2026-03-01T03:58:27.445Z)
Latitude
23.83307°
Longitude
-85.81861°
Altitude
2,128.164 km
Speed
6.718 km/s
True Right ascension
08h 51m 05s
True Declination
23° 43' 36"
Sunlit
Object was in full shadow at epoch
Visualization orbit readout
Latitude
Unknown
Longitude
Unknown
Altitude
Unknown
Speed
Unknown
Apparent Right ascension
Unknown
Apparent Declination
Unknown
Sunlit
N/A
Visualization observer readout
Local Sidereal Time
10:09:05
Azimuth
Unknown
Elevation
Unknown
Doppler factor
Unknown
Orbital elements
Apogee altitude
2,127.33 km
Perigee altitude
1,501.811 km
Semi-major axis
8,192.707 km
Eccentricity
0.03818
Inclination
102.4723°
RAAN
307.1913°
Arg. of periapsis
326.6689°
True anomaly
188.9061°
Mean anomaly
189.603°
Eccentric anomaly
189.25136°
Mean motion
2.92686 °/min
Orbital period
123 mins
BSTAR
0.000069983
Loading maneuver chart data...
Computing Atmospheric mass density...
Loading historical data...
Loading historical data...
Loading historical data...
Loading historical data...
Loading historical data...
Loading historical data...
Loading historical data...

Documentation

Showing up to 5 results
|